Time,TemperatureF,DewpointF,PressureIn,WindDirection,WindDirectionDegrees,WindSpeedMPH,WindSpeedGustMPH,Humidity,HourlyPrecipIn,Conditions,Clouds,dailyrainin,SoftwareType,DateUTC
2013-05-07 00:00:00,61.4,47.8,29.99,SSW,202,6.0,-999.0,61,0.00,,,0.00,Wunderground v.1.15,2013-05-07 04:00:00,
2013-05-07 00:05:00,61.2,48.1,29.99,SSW,202,6.0,-999.0,62,0.00,,,0.00,Wunderground v.1.15,2013-05-07 04:05:00,
2013-05-07 00:10:00,61.0,48.3,29.99,SSW,205,5.0,-999.0,63,0.00,,,0.00,Wunderground v.1.15,2013-05-07 04:10:00,
2013-05-07 00:15:00,60.5,48.3,29.99,SSW,205,5.0,-999.0,64,0.00,,,0.00,Wunderground v.1.15,2013-05-07 04:15:00,
2013-05-07 00:20:00,60.4,48.6,29.99,SSW,205,5.0,-999.0,65,0.00,,,0.00,Wunderground v.1.15,2013-05-07 04:20:00,
2013-05-07 00:25:00,60.5,48.7,29.99,SSW,206,5.0,-999.0,65,0.00,,,0.00,Wunderground v.1.15,2013-05-07 04:25:00,
2013-05-07 00:30:00,60.9,48.6,29.99,SSW,206,6.0,-999.0,64,0.00,,,0.00,Wunderground v.1.15,2013-05-07 04:30:00,
2013-05-07 00:35:00,61.1,48.4,29.99,SSW,207,5.0,-999.0,63,0.00,,,0.00,Wunderground v.1.15,2013-05-07 04:35:00,
2013-05-07 00:40:00,61.1,48.8,29.99,SW,217,5.0,-999.0,64,0.00,,,0.00,Wunderground v.1.15,2013-05-07 04:40:00,
2013-05-07 00:45:00,61.1,48.8,29.99,SW,217,5.0,-999.0,64,0.00,,,0.00,Wunderground v.1.15,2013-05-07 04:45:00,
2013-05-07 00:50:00,61.1,48.8,29.99,SW,222,5.0,-999.0,64,0.00,,,0.00,Wunderground v.1.15,2013-05-07 04:50:00,
2013-05-07 00:55:00,61.0,49.1,29.99,SW,222,6.0,-999.0,65,0.00,,,0.00,Wunderground v.1.15,2013-05-07 04:55:00,
2013-05-07 01:00:00,61.0,49.6,29.99,SW,222,6.0,-999.0,66,0.00,,,0.00,Wunderground v.1.15,2013-05-07 05:00:00,
2013-05-07 01:05:00,61.1,49.7,29.99,SW,222,5.0,-999.0,66,0.00,,,0.00,Wunderground v.1.15,2013-05-07 05:05:00,
2013-05-07 01:10:00,61.1,49.7,30.00,SW,222,5.0,-999.0,66,0.00,,,0.00,Wunderground v.1.15,2013-05-07 05:10:00,
2013-05-07 01:15:00,61.0,49.6,29.99,SW,222,5.0,-999.0,66,0.00,,,0.00,Wunderground v.1.15,2013-05-07 05:15:00,
2013-05-07 01:20:00,60.7,49.3,29.99,SW,222,5.0,-999.0,66,0.00,,,0.00,Wunderground v.1.15,2013-05-07 05:20:00,
2013-05-07 01:25:00,60.7,49.7,29.99,SW,222,5.0,-999.0,67,0.00,,,0.00,Wunderground v.1.15,2013-05-07 05:25:00,
2013-05-07 01:30:00,60.7,49.7,29.99,SW,222,6.0,-999.0,67,0.00,,,0.00,Wunderground v.1.15,2013-05-07 05:30:00,
2013-05-07 01:35:00,60.5,49.5,29.99,SW,222,6.0,-999.0,67,0.00,,,0.00,Wunderground v.1.15,2013-05-07 05:35:00,
2013-05-07 01:40:00,60.3,49.7,29.99,SW,222,5.0,-999.0,68,0.00,,,0.00,Wunderground v.1.15,2013-05-07 05:40:00,
2013-05-07 01:45:00,59.8,49.2,29.99,SW,222,5.0,-999.0,68,0.00,,,0.00,Wunderground v.1.15,2013-05-07 05:45:00,
2013-05-07 01:50:00,59.5,49.3,29.99,SW,222,5.0,-999.0,69,0.00,,,0.00,Wunderground v.1.15,2013-05-07 05:50:00,
2013-05-07 01:55:00,59.5,49.7,29.99,SW,222,5.0,-999.0,70,0.00,,,0.00,Wunderground v.1.15,2013-05-07 05:55:00,
2013-05-07 02:00:00,59.6,49.4,29.99,SW,222,6.0,-999.0,69,0.00,,,0.00,Wunderground v.1.15,2013-05-07 06:00:00,
2013-05-07 02:05:00,59.9,49.7,29.99,SW,222,6.0,-999.0,69,0.00,,,0.00,Wunderground v.1.15,2013-05-07 06:05:00,
2013-05-07 02:10:00,59.8,49.6,29.99,SW,222,6.0,-999.0,69,0.00,,,0.00,Wunderground v.1.15,2013-05-07 06:10:00,
2013-05-07 02:15:00,59.4,49.6,29.99,SW,222,6.0,-999.0,70,0.00,,,0.00,Wunderground v.1.15,2013-05-07 06:15:00,
2013-05-07 02:20:00,59.3,49.5,29.99,SW,222,6.0,-999.0,70,0.00,,,0.00,Wunderground v.1.15,2013-05-07 06:20:00,
2013-05-07 02:25:00,59.6,49.8,29.99,SW,222,6.0,-999.0,70,0.00,,,0.00,Wunderground v.1.15,2013-05-07 06:25:00,
2013-05-07 02:30:00,59.6,49.8,29.99,SW,222,6.0,-999.0,70,0.00,,,0.00,Wunderground v.1.15,2013-05-07 06:30:00,
2013-05-07 02:35:00,59.5,49.7,29.99,SW,222,5.0,-999.0,70,0.00,,,0.00,Wunderground v.1.15,2013-05-07 06:35:00,
2013-05-07 02:40:00,59.3,49.5,29.99,SW,222,5.0,-999.0,70,0.00,,,0.00,Wunderground v.1.15,2013-05-07 06:40:00,
2013-05-07 02:45:00,59.1,49.7,29.99,SW,222,5.0,-999.0,71,0.00,,,0.00,Wunderground v.1.15,2013-05-07 06:45:00,
2013-05-07 02:50:00,58.8,49.4,29.99,SW,222,5.0,-999.0,71,0.00,,,0.00,Wunderground v.1.15,2013-05-07 06:50:00,
2013-05-07 02:55:00,58.5,49.5,29.99,SW,222,5.0,-999.0,72,0.00,,,0.00,Wunderground v.1.15,2013-05-07 06:55:00,
2013-05-07 03:00:00,58.4,49.4,29.99,SW,222,5.0,-999.0,72,0.00,,,0.00,Wunderground v.1.15,2013-05-07 07:00:00,
2013-05-07 03:10:00,58.7,49.7,29.99,SW,222,6.0,-999.0,72,0.00,,,0.00,Wunderground v.1.15,2013-05-07 07:10:00,
2013-05-07 03:15:00,58.5,49.5,29.99,SW,222,6.0,-999.0,72,0.00,,,0.00,Wunderground v.1.15,2013-05-07 07:15:00,
2013-05-07 03:20:00,58.0,49.4,29.99,SW,222,6.0,-999.0,73,0.00,,,0.00,Wunderground v.1.15,2013-05-07 07:20:00,
2013-05-07 03:25:00,57.9,49.3,29.99,SW,222,6.0,-999.0,73,0.00,,,0.00,Wunderground v.1.15,2013-05-07 07:25:00,
2013-05-07 03:30:00,57.7,49.1,29.99,SW,222,6.0,-999.0,73,0.00,,,0.00,Wunderground v.1.15,2013-05-07 07:30:00,
2013-05-07 03:35:00,57.5,49.3,29.99,SW,222,6.0,-999.0,74,0.00,,,0.00,Wunderground v.1.15,2013-05-07 07:35:00,
2013-05-07 03:45:00,57.6,49.4,29.99,SW,222,6.0,-999.0,74,0.00,,,0.00,Wunderground v.1.15,2013-05-07 07:45:00,
2013-05-07 03:50:00,57.9,49.7,29.99,SW,222,6.0,-999.0,74,0.00,,,0.00,Wunderground v.1.15,2013-05-07 07:50:00,
2013-05-07 03:55:00,58.1,49.9,29.99,SW,222,6.0,-999.0,74,0.00,,,0.00,Wunderground v.1.15,2013-05-07 07:55:00,
2013-05-07 04:00:00,58.1,49.5,29.99,SW,222,6.0,-999.0,73,0.00,,,0.00,Wunderground v.1.15,2013-05-07 08:00:00,
2013-05-07 04:05:00,57.9,49.3,29.99,SW,222,5.0,-999.0,73,0.00,,,0.00,Wunderground v.1.15,2013-05-07 08:05:00,
2013-05-07 04:10:00,56.9,49.1,29.99,SW,222,4.0,-999.0,75,0.00,,,0.00,Wunderground v.1.15,2013-05-07 08:10:00,
2013-05-07 04:20:00,56.9,49.4,29.99,SW,222,5.0,-999.0,76,0.00,,,0.00,Wunderground v.1.15,2013-05-07 08:20:00,
2013-05-07 04:25:00,56.8,49.3,29.99,SW,222,5.0,-999.0,76,0.00,,,0.00,Wunderground v.1.15,2013-05-07 08:25:00,
2013-05-07 04:30:00,56.7,49.2,29.99,SW,222,6.0,-999.0,76,0.00,,,0.00,Wunderground v.1.15,2013-05-07 08:30:00,
2013-05-07 04:35:00,56.7,49.2,29.99,SW,222,6.0,-999.0,76,0.00,,,0.00,Wunderground v.1.15,2013-05-07 08:35:00,
2013-05-07 04:40:00,56.7,49.6,30.00,SW,222,7.0,-999.0,77,0.00,,,0.00,Wunderground v.1.15,2013-05-07 08:40:00,
2013-05-07 04:50:00,56.4,49.3,29.99,SW,222,6.0,-999.0,77,0.00,,,0.00,Wunderground v.1.15,2013-05-07 08:50:00,
2013-05-07 04:55:00,56.1,49.3,30.00,SW,222,6.0,-999.0,78,0.00,,,0.00,Wunderground v.1.15,2013-05-07 08:55:00,
2013-05-07 05:00:00,56.0,49.2,30.00,SW,222,6.0,-999.0,78,0.00,,,0.00,Wunderground v.1.15,2013-05-07 09:00:00,
2013-05-07 05:05:00,55.9,49.5,30.00,SW,222,6.0,-999.0,79,0.00,,,0.00,Wunderground v.1.15,2013-05-07 09:05:00,
2013-05-07 05:10:00,55.9,49.5,30.00,SW,222,6.0,-999.0,79,0.00,,,0.00,Wunderground v.1.15,2013-05-07 09:10:00,
2013-05-07 05:15:00,55.9,49.5,30.00,SW,222,6.0,-999.0,79,0.00,,,0.00,Wunderground v.1.15,2013-05-07 09:15:00,
2013-05-07 05:25:00,55.9,49.5,29.99,SW,222,7.0,-999.0,79,0.00,,,0.00,Wunderground v.1.15,2013-05-07 09:25:00,
2013-05-07 05:30:00,55.8,49.7,29.99,SW,222,7.0,-999.0,80,0.00,,,0.00,Wunderground v.1.15,2013-05-07 09:30:00,
2013-05-07 05:35:00,55.7,49.6,29.99,SW,222,7.0,-999.0,80,0.00,,,0.00,Wunderground v.1.15,2013-05-07 09:35:00,
2013-05-07 05:40:00,55.5,49.4,29.99,SW,222,7.0,-999.0,80,0.00,,,0.00,Wunderground v.1.15,2013-05-07 09:40:00,
2013-05-07 05:45:00,55.2,49.1,29.99,SW,222,6.0,-999.0,80,0.00,,,0.00,Wunderground v.1.15,2013-05-07 09:45:00,
2013-05-07 05:50:00,55.2,49.8,29.99,SSW,213,6.0,-999.0,82,0.00,,,0.00,Wunderground v.1.15,2013-05-07 09:50:00,
2013-05-07 05:55:00,55.4,49.7,29.99,SSW,210,6.0,-999.0,81,0.00,,,0.00,Wunderground v.1.15,2013-05-07 09:55:00,
2013-05-07 06:00:00,55.2,49.5,29.99,SSW,210,6.0,-999.0,81,0.00,,,0.00,Wunderground v.1.15,2013-05-07 10:00:00,
2013-05-07 06:05:00,55.4,50.0,29.99,SSW,210,5.0,-999.0,82,0.00,,,0.00,Wunderground v.1.15,2013-05-07 10:05:00,
2013-05-07 06:10:00,55.5,50.1,30.00,SSW,211,5.0,-999.0,82,0.00,,,0.00,Wunderground v.1.15,2013-05-07 10:10:00,
2013-05-07 06:15:00,55.5,50.1,30.00,SSW,211,4.0,-999.0,82,0.00,,,0.00,Wunderground v.1.15,2013-05-07 10:15:00,
2013-05-07 06:20:00,55.9,50.5,30.00,SSW,210,5.0,-999.0,82,0.00,,,0.00,Wunderground v.1.15,2013-05-07 10:20:00,
2013-05-07 06:25:00,55.9,50.2,30.00,SSW,210,5.0,-999.0,81,0.00,,,0.00,Wunderground v.1.15,2013-05-07 10:25:00,
2013-05-07 06:30:00,55.8,50.4,30.00,SSW,210,4.0,-999.0,82,0.00,,,0.00,Wunderground v.1.15,2013-05-07 10:30:00,
2013-05-07 06:35:00,55.8,50.4,30.00,SSW,210,4.0,-999.0,82,0.00,,,0.00,Wunderground v.1.15,2013-05-07 10:35:00,
2013-05-07 06:40:00,55.9,50.5,30.00,SSW,210,4.0,-999.0,82,0.00,,,0.00,Wunderground v.1.15,2013-05-07 10:40:00,
2013-05-07 06:45:00,56.1,50.7,30.01,SSW,210,4.0,-999.0,82,0.00,,,0.00,Wunderground v.1.15,2013-05-07 10:45:00,
2013-05-07 06:50:00,56.4,51.0,30.01,SSW,210,5.0,-999.0,82,0.00,,,0.00,Wunderground v.1.15,2013-05-07 10:50:00,
2013-05-07 07:00:00,56.7,50.9,30.01,SSW,210,5.0,-999.0,81,0.00,,,0.00,Wunderground v.1.15,2013-05-07 11:00:00,
2013-05-07 07:05:00,56.7,50.9,30.01,SSW,210,5.0,-999.0,81,0.00,,,0.00,Wunderground v.1.15,2013-05-07 11:05:00,
2013-05-07 07:10:00,56.8,51.4,30.01,SSW,210,4.0,-999.0,82,0.00,,,0.00,Wunderground v.1.15,2013-05-07 11:10:00,
2013-05-07 07:15:00,57.2,51.8,30.01,SSW,210,3.0,-999.0,82,0.00,,,0.00,Wunderground v.1.15,2013-05-07 11:15:00,
2013-05-07 07:20:00,57.7,51.9,30.01,SSW,210,2.0,-999.0,81,0.00,,,0.00,Wunderground v.1.15,2013-05-07 11:20:00,
2013-05-07 07:25:00,57.9,51.8,30.01,SSW,210,3.0,-999.0,80,0.00,,,0.00,Wunderground v.1.15,2013-05-07 11:25:00,
2013-05-07 07:30:00,58.0,51.9,30.02,SSW,210,3.0,-999.0,80,0.00,,,0.00,Wunderground v.1.15,2013-05-07 11:30:00,
2013-05-07 07:35:00,58.0,51.5,30.02,SSW,210,3.0,-999.0,79,0.00,,,0.00,Wunderground v.1.15,2013-05-07 11:35:00,
2013-05-07 07:40:00,58.1,51.6,30.02,SSW,210,5.0,-999.0,79,0.00,,,0.00,Wunderground v.1.15,2013-05-07 11:40:00,
2013-05-07 07:45:00,58.4,51.9,30.02,SSW,210,5.0,-999.0,79,0.00,,,0.00,Wunderground v.1.15,2013-05-07 11:45:00,
2013-05-07 07:50:00,58.7,52.2,30.02,SSW,210,5.0,-999.0,79,0.00,,,0.00,Wunderground v.1.15,2013-05-07 11:50:00,
2013-05-07 07:55:00,59.0,52.1,30.02,SSW,209,6.0,-999.0,78,0.00,,,0.00,Wunderground v.1.15,2013-05-07 11:55:00,
2013-05-07 08:00:00,59.1,52.2,30.02,SW,215,6.0,-999.0,78,0.00,,,0.00,Wunderground v.1.15,2013-05-07 12:00:00,
2013-05-07 08:05:00,59.3,52.8,30.02,SSW,209,6.0,-999.0,79,0.00,,,0.00,Wunderground v.1.15,2013-05-07 12:05:00,
2013-05-07 08:10:00,59.7,52.5,30.02,SSW,210,6.0,-999.0,77,0.00,,,0.00,Wunderground v.1.15,2013-05-07 12:10:00,
2013-05-07 08:15:00,60.3,53.1,30.02,SSW,210,5.0,-999.0,77,0.00,,,0.00,Wunderground v.1.15,2013-05-07 12:15:00,
2013-05-07 08:20:00,60.6,53.0,30.02,SSW,197,5.0,-999.0,76,0.00,,,0.00,Wunderground v.1.15,2013-05-07 12:20:00,
2013-05-07 08:25:00,60.8,53.2,30.02,SSW,192,5.0,-999.0,76,0.00,,,0.00,Wunderground v.1.15,2013-05-07 12:25:00,
2013-05-07 08:30:00,60.8,52.8,30.02,South,190,5.0,-999.0,75,0.00,,,0.00,Wunderground v.1.15,2013-05-07 12:30:00,
2013-05-07 08:35:00,61.3,53.3,30.02,South,188,6.0,-999.0,75,0.00,,,0.00,Wunderground v.1.15,2013-05-07 12:35:00,
2013-05-07 08:40:00,61.4,52.7,30.02,South,187,6.0,-999.0,73,0.00,,,0.00,Wunderground v.1.15,2013-05-07 12:40:00,
2013-05-07 08:45:00,61.6,53.2,30.02,South,190,6.0,-999.0,74,0.00,,,0.00,Wunderground v.1.15,2013-05-07 12:45:00,
2013-05-07 08:50:00,61.6,52.5,30.02,SSW,209,6.0,-999.0,72,0.00,,,0.00,Wunderground v.1.15,2013-05-07 12:50:00,
2013-05-07 08:55:00,62.0,53.2,30.02,South,188,6.0,-999.0,73,0.00,,,0.00,Wunderground v.1.15,2013-05-07 12:55:00,
2013-05-07 09:00:00,62.3,53.5,30.02,South,185,5.0,-999.0,73,0.00,,,0.00,Wunderground v.1.15,2013-05-07 13:00:00,
2013-05-07 09:10:00,62.4,52.9,30.03,South,176,5.0,-999.0,71,0.00,,,0.00,Wunderground v.1.15,2013-05-07 13:10:00,
2013-05-07 09:15:00,62.6,53.1,30.02,South,176,6.0,-999.0,71,0.00,,,0.00,Wunderground v.1.15,2013-05-07 13:15:00,
2013-05-07 09:20:00,63.0,52.7,30.03,South,176,5.0,-999.0,69,0.00,,,0.00,Wunderground v.1.15,2013-05-07 13:20:00,
2013-05-07 09:25:00,63.2,53.3,30.03,South,176,5.0,-999.0,70,0.00,,,0.00,Wunderground v.1.15,2013-05-07 13:25:00,
2013-05-07 09:30:00,63.7,53.3,30.03,South,175,4.0,-999.0,69,0.00,,,0.00,Wunderground v.1.15,2013-05-07 13:30:00,
2013-05-07 09:35:00,64.3,53.5,30.03,South,175,4.0,-999.0,68,0.00,,,0.00,Wunderground v.1.15,2013-05-07 13:35:00,
2013-05-07 09:40:00,64.5,53.3,30.03,South,175,5.0,-999.0,67,0.00,,,0.00,Wunderground v.1.15,2013-05-07 13:40:00,
2013-05-07 09:45:00,64.6,53.0,30.03,South,175,4.0,-999.0,66,0.00,,,0.00,Wunderground v.1.15,2013-05-07 13:45:00,
2013-05-07 09:50:00,65.2,53.1,30.03,South,175,3.0,-999.0,65,0.00,,,0.00,Wunderground v.1.15,2013-05-07 13:50:00,
2013-05-07 09:55:00,65.6,52.7,30.02,South,175,2.0,-999.0,63,0.00,,,0.00,Wunderground v.1.15,2013-05-07 13:55:00,
2013-05-07 10:00:00,65.9,52.9,30.02,South,175,2.0,-999.0,63,0.00,,,0.00,Wunderground v.1.15,2013-05-07 14:00:00,
2013-05-07 10:05:00,66.6,52.7,30.02,South,175,2.0,-999.0,61,0.00,,,0.00,Wunderground v.1.15,2013-05-07 14:05:00,
2013-05-07 10:10:00,66.8,52.9,30.02,South,175,2.0,-999.0,61,0.00,,,0.00,Wunderground v.1.15,2013-05-07 14:10:00,
2013-05-07 10:15:00,67.2,52.8,30.02,South,175,2.0,-999.0,60,0.00,,,0.00,Wunderground v.1.15,2013-05-07 14:15:00,
2013-05-07 10:20:00,67.5,53.1,30.02,South,175,2.0,-999.0,60,0.00,,,0.00,Wunderground v.1.15,2013-05-07 14:20:00,
2013-05-07 10:25:00,67.9,53.0,30.02,South,175,3.0,-999.0,59,0.00,,,0.00,Wunderground v.1.15,2013-05-07 14:25:00,
2013-05-07 10:30:00,68.0,52.7,30.02,South,175,2.0,-999.0,58,0.00,,,0.00,Wunderground v.1.15,2013-05-07 14:30:00,
2013-05-07 10:35:00,67.9,52.1,30.02,South,175,2.0,-999.0,57,0.00,,,0.00,Wunderground v.1.15,2013-05-07 14:35:00,
2013-05-07 10:40:00,68.1,52.8,30.02,South,175,2.0,-999.0,58,0.00,,,0.00,Wunderground v.1.15,2013-05-07 14:40:00,
2013-05-07 10:45:00,68.2,52.9,30.02,SE,136,2.0,-999.0,58,0.00,,,0.00,Wunderground v.1.15,2013-05-07 14:45:00,
2013-05-07 10:50:00,68.6,53.2,30.02,ESE,121,2.0,-999.0,58,0.00,,,0.00,Wunderground v.1.15,2013-05-07 14:50:00,
2013-05-07 10:55:00,68.6,52.3,30.02,ESE,120,2.0,-999.0,56,0.00,,,0.00,Wunderground v.1.15,2013-05-07 14:55:00,
2013-05-07 11:00:00,68.6,51.8,30.02,East,90,3.0,-999.0,55,0.00,,,0.00,Wunderground v.1.15,2013-05-07 15:00:00,
2013-05-07 11:05:00,68.6,52.3,30.02,East,90,3.0,-999.0,56,0.00,,,0.00,Wunderground v.1.15,2013-05-07 15:05:00,
2013-05-07 11:10:00,68.9,52.1,30.02,East,93,3.0,-999.0,55,0.00,,,0.00,Wunderground v.1.15,2013-05-07 15:10:00,
2013-05-07 11:20:00,69.6,52.2,30.01,ENE,59,4.0,-999.0,54,0.00,,,0.00,Wunderground v.1.15,2013-05-07 15:20:00,
2013-05-07 11:25:00,69.8,51.4,30.01,ENE,76,5.0,-999.0,52,0.00,,,0.00,Wunderground v.1.15,2013-05-07 15:25:00,
2013-05-07 11:30:00,70.0,51.0,30.01,ENE,78,4.0,-999.0,51,0.00,,,0.00,Wunderground v.1.15,2013-05-07 15:30:00,
2013-05-07 11:35:00,69.9,50.4,30.01,ENE,78,3.0,-999.0,50,0.00,,,0.00,Wunderground v.1.15,2013-05-07 15:35:00,
2013-05-07 11:40:00,69.5,50.6,30.01,ENE,75,4.0,-999.0,51,0.00,,,0.00,Wunderground v.1.15,2013-05-07 15:40:00,
2013-05-07 11:45:00,69.6,50.7,30.00,ENE,74,4.0,-999.0,51,0.00,,,0.00,Wunderground v.1.15,2013-05-07 15:45:00,
2013-05-07 11:50:00,70.1,50.6,30.00,ESE,111,5.0,-999.0,50,0.00,,,0.00,Wunderground v.1.15,2013-05-07 15:50:00,
2013-05-07 11:55:00,69.9,50.9,30.00,East,87,5.0,-999.0,51,0.00,,,0.00,Wunderground v.1.15,2013-05-07 15:55:00,